Location: Unspecified
(0.0000°N, 0.0000°E)
Time: 11:29:51
(UTC+00:00)

Transit 2A - Pass Details

Date: 27 November 2019
Orbit: 602 x 957 km, 66.7° (Epoch: 07 December)

Event Time Altitude Azimuth Distance (km) Brightness Sun altitude
Rises 08:48:20 0° 207° (SSW) 3,505 9.4 41.5°
Reaches altitude 10° 08:50:58 10° 210° (SSW) 2,516 8.8 42.0°
Maximum altitude 08:56:40 59° 289° (WNW) 929 6.7 43.3°
Drops below altitude 10° 09:01:49 10° 8° (N) 2,270 8.4 44.4°
Sets 09:04:06 0° 12° (NNE) 3,136 9.0 44.9°
